THOR ALTAIR R/B, 1583

Orbit data source: Space-Track

THOR ALTAIR R/B, 1583 is space debris in SSO originally from a launch on Fri, 10 Sep 1965 UTC launched from the Air Force Western Test Range (AFWTR). Debris objects in space refer to the collection of defunct objects orbiting the Earth. Examples of debris include non-operational satellites, rocket bodies, and fragments generated from explosions, collisions, or faulty payload assembly.

Loading next visibility...
Identifier
1583, 1965-072D
Orbit
SSO
Country
Flag of USUS
Related business
Manufacturer
UTC
Mission
Spacecraft
Bus & Motor
FW4, Unknown motor
Mass
25 kg wet, 25 kg dry
Launch date (UTC)
1965-09-10 (61 years ago)
Launch vehicle
Unknown
Launch site
Air Force Western Test Range (AFWTR)
Object type
Payload
Rocket body
Debris
Shape & HBR
Unknown
Radar Cross Section
Medium (>0.1 m² and <1 m²)

Expand to show TLE details & history
Last TLE update: 11 hours ago

TLE from 11 hours ago
0 THOR ALTAIR R/B
1  1583U 65072D   26131.15008934  .00000949  00000-0  16328-3 0  9995
2  1583  98.3941   5.0819 0139982 349.6222  10.2097 14.64981132161529
Epoch: 2026-05-11T03:36Z
TLE epoch observation values (Epoch: 2026-05-11T03:36:07.718Z)
Latitude
-0.00007°
Longitude
82.1068°
Altitude
582.949 km
Speed
7.621 km/s
True Right ascension
00h 20m 19s
True Declination
0° 00' 00"
Sunlit
Object was in daylight at epoch
Visualization orbit readout
Latitude
Unknown
Longitude
Unknown
Altitude
Unknown
Speed
Unknown
Apparent Right ascension
Unknown
Apparent Declination
Unknown
Sunlit
N/A
Visualization observer readout
Local Sidereal Time
23:09:33
Azimuth
Unknown
Elevation
Unknown
Doppler factor
Unknown
Orbital elements
Apogee altitude
772.939 km
Perigee altitude
575.498 km
Semi-major axis
7,052.356 km
Eccentricity
0.014
Inclination
98.3941°
RAAN
5.0819°
Arg. of periapsis
349.6222°
True anomaly
10.499°
Mean anomaly
10.2097°
Eccentric anomaly
10.35385°
Mean motion
3.66473 °/min
Orbital period
98.23 mins
BSTAR
0.00016328
Loading maneuver chart data...
Computing Atmospheric mass density...
Loading historical data...
Loading historical data...
Loading historical data...
Loading historical data...
Loading historical data...
Loading historical data...
Loading historical data...

Documentation

Showing up to 5 results
|